OMD4801 KAUS-KBOS

Flight info

Callsign OMD4801
Flight time N/A
Altitude 35000
Route ILEXY4 ZENZI IAH GUSTI Q22 TWOUP/N0444F370 Q22 RBV Q419 JFK ROBUC3
Aircraft A319/M-SDE3FGHIRWY/LB1

Departure

Time 2026-04-30 18:46
Airport Austin Bergstrom International Airport (KAUS)

Arrival

Time N/A
Airport Boston Logan International Airport (KBOS)
Time Latitude Longitude Altitude Speed Heading
2026-04-30 18:30 30.18670 -97.66163 491 ft 0 kts 179°
2026-04-30 18:42 30.18632 -97.66161 487 ft 5 kts 176°
2026-04-30 18:42 30.18589 -97.66158 487 ft 7 kts 177°
2026-04-30 18:45 30.18023 -97.65731 478 ft 32 kts 357°
2026-04-30 18:45 30.18475 -97.65749 477 ft 96 kts 359°
2026-04-30 18:45 30.19340 -97.65767 510 ft 151 kts 359°
2026-04-30 18:46 30.20369 -97.65820 1174 ft 142 kts
2026-04-30 18:46 30.21388 -97.65858 1644 ft 153 kts
2026-04-30 18:46 30.22487 -97.65895 1986 ft 166 kts
2026-04-30 18:46 30.23716 -97.65930 2235 ft 188 kts
2026-04-30 18:47 30.25110 -97.65964 2498 ft 212 kts
2026-04-30 18:47 30.26674 -97.66002 2874 ft 236 kts
2026-04-30 18:47 30.28398 -97.66022 3267 ft 260 kts
2026-04-30 18:47 30.30241 -97.66026 3797 ft 275 kts
2026-04-30 18:48 30.32136 -97.65831 4129 ft 276 kts 17°
2026-04-30 18:48 30.33842 -97.64797 4972 ft 276 kts 40°
2026-04-30 18:48 30.35040 -97.63094 5691 ft 281 kts 64°
2026-04-30 18:48 30.35519 -97.60910 6376 ft 286 kts 89°
2026-04-30 18:49 30.35517 -97.58587 7068 ft 290 kts 92°
2026-04-30 18:49 30.35500 -97.56247 7822 ft 293 kts 92°
2026-04-30 18:49 30.35487 -97.53875 8550 ft 296 kts 93°
2026-04-30 18:49 30.35477 -97.51483 9270 ft 300 kts 93°
2026-04-30 18:50 30.35469 -97.49054 9977 ft 304 kts 94°
2026-04-30 18:50 30.35460 -97.46557 10354 ft 319 kts 94°
2026-04-30 18:50 30.35445 -97.43897 10489 ft 342 kts 93°
2026-04-30 18:50 30.35430 -97.41076 10790 ft 356 kts 93°
2026-04-30 18:51 30.35417 -97.38172 11303 ft 363 kts 93°
2026-04-30 18:51 30.35406 -97.35230 11847 ft 368 kts 92°
2026-04-30 18:51 30.35397 -97.32248 12387 ft 374 kts 92°
2026-04-30 18:51 30.35386 -97.29218 12910 ft 379 kts 92°
2026-04-30 18:52 30.35374 -97.26141 13437 ft 385 kts 92°
2026-04-30 18:52 30.35357 -97.23021 13939 ft 390 kts 92°
2026-04-30 18:52 30.35338 -97.19863 14409 ft 395 kts 92°
2026-04-30 18:52 30.35319 -97.16659 14897 ft 400 kts 92°
2026-04-30 18:53 30.35303 -97.13413 15359 ft 405 kts 92°
2026-04-30 18:53 30.35287 -97.10173 15830 ft 410 kts 92°
2026-04-30 18:53 30.35258 -97.06856 16309 ft 415 kts 93°
2026-04-30 18:53 30.35141 -97.03499 16779 ft 419 kts 95°
2026-04-30 18:54 30.34947 -97.00116 17247 ft 424 kts 96°
2026-04-30 18:54 30.34709 -96.96699 17710 ft 429 kts 96°
2026-04-30 18:54 30.34452 -96.93191 18181 ft 433 kts 96°
2026-04-30 18:54 30.34210 -96.89741 18589 ft 438 kts 96°
2026-04-30 18:55 30.33981 -96.86219 19027 ft 441 kts 95°
2026-04-30 18:55 30.33552 -96.79091 19915 ft 447 kts 95°
2026-04-30 18:55 30.33344 -96.75483 20363 ft 450 kts 95°
2026-04-30 18:56 30.32902 -96.68203 21234 ft 457 kts 95°
2026-04-30 18:56 30.32669 -96.64522 21653 ft 460 kts 94°
2026-04-30 18:56 30.32436 -96.60819 22052 ft 463 kts 94°
2026-04-30 18:57 30.31961 -96.53343 22816 ft 469 kts 94°
2026-04-30 18:57 30.31718 -96.49554 23187 ft 472 kts 94°
2026-04-30 18:57 30.31473 -96.45759 23520 ft 475 kts 94°
2026-04-30 18:58 30.30977 -96.38083 24172 ft 480 kts 94°
2026-04-30 18:58 30.30729 -96.34222 24496 ft 482 kts 94°
2026-04-30 18:58 30.30478 -96.30338 24820 ft 484 kts 94°
2026-04-30 18:59 30.29967 -96.22547 25441 ft 488 kts 94°